Location: Little Suamico
(44.7175°N, 88.0093°W)
Time: 19:36:00
(UTC+00:00)

X-37B - Pass Details

Date: 23 April 2021
Orbit: 386 x 389 km, 45.0° (Epoch: 08 May)

Event Time Altitude Azimuth Distance (km) Brightness Sun altitude
Exits shadow 09:22:52 29° 277° (W) 753 1.6 -15.2°
Maximum altitude 09:24:22 85° 6° (N) 393 0.5 -15.0°
Drops below altitude 10° 09:27:33 10° 93° (E) 1,413 4.2 -14.5°
Sets 09:29:38 0° 94° (E) 2,266 5.3 -14.2°
